RBSP B

Last updated on Fri Nov 22 2019 04:20:15 GMT+0000 (Coordinated Universal Time)

1 38753U 12046B 19324.76180293 .00001080 00000-0 23830-3 0 9992 2 38753 9.8637 141.2787 6937532 215.6486 67.5384 2.72732855 70212

Satellite not in orbit

RBSP B